Neijiang

operational
NORAD ID: 63984 Int'l Des: NNA 2025-100 Owner: GUOX/ZJLAB Country: CN
LEOCIRCULARRETROGRADESSO

About Neijiang

Description loading...

Live Position

Loading 3D Globe...

Upcoming Passes

Altitude History

Altitude vs Time

uPlot chart will show altitude changes over time

Two-Line Element Set

1 63984U 25100C 26102.92067838 .00005965 00000-0 26375-3 0 9993
2 63984 97.3695 177.1325 0024987 210.3702 149.6088 15.21784592 50704
Epoch: Apr 12, 2026 • Age: 7 hours

Current Status

Altitude 519.4 km
Velocity 7.61 km/s
Sub-Earth Point -81.90°S, 7.64°E
Launch Date May 14, 2025
Age 0.9 years
Type other

Technical Details

Classification Payload
Mass 50.00 kg
Dry Mass 50.00 kg
Total Mass 50.00 kg
Length 0.30 m
Diameter 0.30 m
Span 0.30 m
Shape Box + 2 pan
Manufacturer GUOX
Bus Type XSD
Phase Status In Orbit
Owner/State GUOX/ZJLAB/CN

Large Constellations

Loading constellations...